• In Germany
  • List of Countries
  • For 7 days
  • Water Temperature
  • Satellite Maps
  • Weather Map
  • Weather Widgets
  • user-avatar
    Login

    Hourly Weather Hozingen

    Today, 19 November, Sunday

    Time Temperature Precipitation Wind Pressure Humidity
    00:00 +3°C° 0 mm 4 mps 717 mmHg 94%
    01:00 +3°C° 0.2 mm 4 mps 717 mmHg 93%
    02:00 +3°C° 0.2 mm 4 mps 717 mmHg 92%
    03:00 +3°C° 0.2 mm 4 mps 717 mmHg 92%
    04:00 +1°C° 0.1 mm 4 mps 717 mmHg 92%
    05:00 +1°C° 0.1 mm 3 mps 717 mmHg 92%
    06:00 -1°C° 0 mm 2 mps 717 mmHg 92%
    07:00 0°C° 0 mm 3 mps 717 mmHg 90%
    08:00 +1°C° 0 mm 3 mps 718 mmHg 88%
    09:00 0°C° 0 mm 4 mps 718 mmHg 86%
    10:00 +1°C° 0 mm 4 mps 719 mmHg 84%
    11:00 +3°C° 0 mm 4 mps 719 mmHg 82%
    12:00 +2°C° 0 mm 5 mps 719 mmHg 80%
    13:00 +3°C° 0.1 mm 4 mps 719 mmHg 82%
    14:00 +3°C° 0.1 mm 4 mps 719 mmHg 83%
    15:00 +3°C° 0.1 mm 4 mps 719 mmHg 85%
    16:00 +1°C° 0.1 mm 4 mps 720 mmHg 88%
    17:00 +1°C° 0.1 mm 3 mps 720 mmHg 91%
    18:00 0°C° 0.1 mm 3 mps 720 mmHg 94%
    19:00 0°C° 0 mm 3 mps 720 mmHg 94%
    20:00 -1°C° 0 mm 3 mps 721 mmHg 95%
    21:00 -1°C° 0 mm 3 mps 721 mmHg 95%
    22:00 -1°C° 0 mm 2 mps 721 mmHg 95%
    23:00 -2°C° 0 mm 2 mps 721 mmHg 95%

    Tomorrow, 20 November, Monday

    Time Temperature Precipitation Wind Pressure Humidity
    00:00 -2°C° 0 mm 2 mps 721 mmHg 96%
    01:00 -2°C° 0 mm 2 mps 721 mmHg 96%
    02:00 -2°C° 0 mm 2 mps 721 mmHg 96%
    03:00 -3°C° 0 mm 2 mps 721 mmHg 96%
    04:00 -3°C° 0 mm 2 mps 721 mmHg 96%
    05:00 -3°C° 0 mm 2 mps 721 mmHg 96%
    06:00 -3°C° 0 mm 2 mps 720 mmHg 95%
    07:00 -2°C° 0 mm 3 mps 721 mmHg 92%
    08:00 -1°C° 0 mm 3 mps 721 mmHg 89%
    09:00 0°C° 0 mm 3 mps 721 mmHg 86%
    10:00 0°C° 0.1 mm 4 mps 720 mmHg 85%
    11:00 0°C° 0.1 mm 5 mps 720 mmHg 84%
    12:00 +1°C° 0.1 mm 5 mps 719 mmHg 82%
    13:00 +1°C° 0 mm 5 mps 719 mmHg 83%
    14:00 +2°C° 0 mm 5 mps 718 mmHg 85%
    15:00 +2°C° 0 mm 5 mps 718 mmHg 86%
    16:00 +2°C° 0 mm 6 mps 717 mmHg 88%
    17:00 +2°C° 0 mm 6 mps 717 mmHg 90%
    18:00 +3°C° 0 mm 6 mps 717 mmHg 92%
    19:00 +3°C° 0.3 mm 6 mps 717 mmHg 92%
    20:00 +3°C° 0.3 mm 6 mps 717 mmHg 92%
    21:00 +3°C° 0.3 mm 6 mps 716 mmHg 93%
    22:00 +3°C° 1.8 mm 6 mps 716 mmHg 93%
    23:00 +3°C° 1.8 mm 6 mps 716 mmHg 94%

    Day after tomorrow, 21 November, Tuesday

    Time Temperature Precipitation Wind Pressure Humidity
    00:00 +3°C° 1.8 mm 6 mps 716 mmHg 94%
    01:00 +4°C° 0.5 mm 6 mps 716 mmHg 94%
    02:00 +4°C° 0.5 mm 6 mps 716 mmHg 95%
    03:00 +5°C° 0.5 mm 6 mps 716 mmHg 95%
    04:00 +5°C° 0.2 mm 6 mps 716 mmHg 95%
    05:00 +5°C° 0.2 mm 6 mps 716 mmHg 95%
    06:00 +5°C° 0.2 mm 6 mps 716 mmHg 95%
    07:00 +5°C° 0.2 mm 6 mps 716 mmHg 95%
    08:00 +5°C° 0.2 mm 5 mps 717 mmHg 94%
    09:00 +5°C° 0.2 mm 5 mps 717 mmHg 93%
    10:00 +5°C° 0 mm 5 mps 717 mmHg 92%
    11:00 +4°C° 0 mm 6 mps 716 mmHg 91%
    12:00 +4°C° 0 mm 6 mps 716 mmHg 90%
    13:00 +5°C° 0 mm 5 mps 716 mmHg 90%
    14:00 +5°C° 0 mm 5 mps 716 mmHg 90%
    15:00 +5°C° 0 mm 4 mps 716 mmHg 91%
    16:00 +5°C° 0 mm 4 mps 716 mmHg 92%
    17:00 +4°C° 0 mm 4 mps 715 mmHg 93%
    18:00 +4°C° 0 mm 4 mps 715 mmHg 94%
    19:00 +4°C° 0 mm 4 mps 715 mmHg 94%
    20:00 +4°C° 0 mm 4 mps 715 mmHg 94%
    21:00 +4°C° 0 mm 4 mps 715 mmHg 94%
    22:00 +4°C° 0 mm 4 mps 715 mmHg 95%
    23:00 +4°C° 0 mm 4 mps 715 mmHg 95%

    22 November, Wednesday

    Time Temperature Precipitation Wind Pressure Humidity
    00:00 +3°C° 0 mm 4 mps 714 mmHg 95%
    01:00 +3°C° 0 mm 4 mps 714 mmHg 95%
    02:00 +3°C° 0 mm 4 mps 714 mmHg 95%
    03:00 +3°C° 0 mm 4 mps 714 mmHg 94%
    04:00 +3°C° 0 mm 4 mps 714 mmHg 94%
    05:00 +3°C° 0 mm 4 mps 714 mmHg 94%
    06:00 +3°C° 0 mm 4 mps 714 mmHg 94%
    07:00 +3°C° 0 mm 4 mps 714 mmHg 91%
    08:00 +4°C° 0 mm 4 mps 714 mmHg 88%
    09:00 +4°C° 0 mm 4 mps 715 mmHg 85%
    10:00 +6°C° 0 mm 4 mps 714 mmHg 81%
    11:00 +7°C° 0 mm 4 mps 714 mmHg 77%
    12:00 +8°C° 0 mm 4 mps 714 mmHg 73%
    13:00 +7°C° 0 mm 4 mps 714 mmHg 75%
    14:00 +7°C° 0 mm 4 mps 713 mmHg 77%
    15:00 +7°C° 0 mm 3 mps 713 mmHg 79%
    16:00 +5°C° 0 mm 3 mps 713 mmHg 81%
    17:00 +5°C° 0 mm 3 mps 713 mmHg 82%
    18:00 +4°C° 0 mm 3 mps 712 mmHg 84%
    19:00 +3°C° 0 mm 3 mps 712 mmHg 83%
    20:00 +3°C° 0 mm 3 mps 712 mmHg 82%
    21:00 +3°C° 0 mm 3 mps 712 mmHg 81%
    22:00 +3°C° 0 mm 4 mps 712 mmHg 80%
    23:00 +3°C° 0 mm 4 mps 712 mmHg 79%

    23 November, Thursday

    Time Temperature Precipitation Wind Pressure Humidity
    00:00 +3°C° 0 mm 4 mps 712 mmHg 79%
    01:00 +3°C° 0 mm 4 mps 712 mmHg 81%
    02:00 +3°C° 0 mm 4 mps 712 mmHg 83%
    03:00 +4°C° 0 mm 4 mps 712 mmHg 85%
    04:00 +3°C° 0 mm 5 mps 712 mmHg 86%
    05:00 +3°C° 0 mm 5 mps 712 mmHg 87%
    06:00 +3°C° 0 mm 5 mps 713 mmHg 88%
    07:00 +5°C° 0 mm 5 mps 713 mmHg 85%
    08:00 +5°C° 0 mm 6 mps 714 mmHg 83%
    09:00 +7°C° 0 mm 6 mps 714 mmHg 80%
    10:00 +8°C° 0 mm 6 mps 714 mmHg 77%
    11:00 +9°C° 0 mm 6 mps 715 mmHg 74%
    12:00 +10°C° 0 mm 6 mps 715 mmHg 72%
    13:00 +9°C° 0 mm 5 mps 715 mmHg 74%
    14:00 +9°C° 0 mm 5 mps 715 mmHg 76%
    15:00 +10°C° 0 mm 4 mps 715 mmHg 78%
    16:00 +8°C° 0 mm 4 mps 715 mmHg 80%
    17:00 +8°C° 0 mm 4 mps 715 mmHg 82%
    18:00 +7°C° 0 mm 4 mps 715 mmHg 84%
    19:00 +7°C° 0 mm 4 mps 715 mmHg 85%
    20:00 +7°C° 0 mm 4 mps 716 mmHg 85%
    21:00 +7°C° 0 mm 4 mps 716 mmHg 86%
    22:00 +7°C° 0 mm 4 mps 716 mmHg 86%
    23:00 +7°C° 0 mm 4 mps 716 mmHg 87%

    24 November, Friday

    Time Temperature Precipitation Wind Pressure Humidity
    00:00 +7°C° 0 mm 4 mps 716 mmHg 88%
    01:00 +6°C° 0 mm 4 mps 716 mmHg 89%
    02:00 +6°C° 0 mm 4 mps 716 mmHg 90%
    03:00 +6°C° 0 mm 4 mps 716 mmHg 91%
    04:00 +5°C° 0 mm 4 mps 716 mmHg 91%
    05:00 +5°C° 0 mm 4 mps 716 mmHg 91%
    06:00 +5°C° 0 mm 4 mps 716 mmHg 91%
    07:00 +6°C° 0 mm 4 mps 716 mmHg 89%
    08:00 +6°C° 0 mm 4 mps 716 mmHg 86%
    09:00 +7°C° 0 mm 4 mps 716 mmHg 83%
    10:00 +7°C° 0 mm 4 mps 716 mmHg 81%
    11:00 +8°C° 0 mm 4 mps 715 mmHg 78%
    12:00 +9°C° 0 mm 5 mps 715 mmHg 75%
    13:00 +9°C° 0 mm 5 mps 715 mmHg 74%
    14:00 +8°C° 0 mm 5 mps 714 mmHg 74%
    15:00 +8°C° 0 mm 5 mps 714 mmHg 73%
    16:00 +8°C° 0 mm 5 mps 714 mmHg 73%
    17:00 +7°C° 0 mm 4 mps 714 mmHg 72%
    18:00 +7°C° 0 mm 4 mps 714 mmHg 71%
    19:00 +6°C° 0 mm 4 mps 713 mmHg 72%
    20:00 +6°C° 0 mm 4 mps 713 mmHg 72%
    21:00 +6°C° 0 mm 4 mps 713 mmHg 73%
    22:00 +6°C° 0 mm 4 mps 713 mmHg 73%
    23:00 +5°C° 0 mm 4 mps 713 mmHg 73%
    Show more